TimeCST,TemperatureF,Dew PointF,Humidity,Sea Level PressureIn,VisibilityMPH,Wind Direction,Wind SpeedMPH,Gust SpeedMPH,PrecipitationIn,Events,Conditions,WindDirDegrees,DateUTC
12:15 AM,35.6,28.9,77,30.10,10.0,Calm,Calm,-,N/A,,Clear,0,2014-01-20 06:15:00
12:35 AM,34.7,28.8,79,30.10,10.0,Calm,Calm,-,N/A,,Clear,0,2014-01-20 06:35:00
12:55 AM,34.9,28.8,78,30.09,10.0,Calm,Calm,-,N/A,,Clear,0,2014-01-20 06:55:00
1:15 AM,34.2,29.1,82,30.09,10.0,Calm,Calm,-,N/A,,Clear,0,2014-01-20 07:15:00
1:35 AM,33.6,29.1,84,30.08,10.0,Calm,Calm,-,N/A,,Clear,0,2014-01-20 07:35:00
1:55 AM,32.2,28.6,87,30.08,10.0,Calm,Calm,-,N/A,,Clear,0,2014-01-20 07:55:00
2:15 AM,37.4,29.3,73,30.07,10.0,Calm,Calm,-,N/A,,Clear,0,2014-01-20 08:15:00
2:35 AM,33.8,28.9,82,30.06,10.0,SE,3.5,-,N/A,,Clear,140,2014-01-20 08:35:00
2:55 AM,35.8,29.1,77,30.06,10.0,Calm,Calm,-,N/A,,Clear,0,2014-01-20 08:55:00
3:15 AM,36.9,29.3,74,30.05,10.0,Calm,Calm,-,N/A,,Clear,0,2014-01-20 09:15:00
3:35 AM,33.1,28.9,85,30.05,10.0,Calm,Calm,-,N/A,,Clear,0,2014-01-20 09:35:00
3:55 AM,33.6,29.1,84,30.04,10.0,Calm,Calm,-,N/A,,Clear,0,2014-01-20 09:55:00
4:15 AM,32.0,27.5,83,30.04,10.0,SSE,4.6,-,N/A,,Clear,150,2014-01-20 10:15:00
4:35 AM,35.6,28.8,76,30.03,10.0,SSE,3.5,-,N/A,,Clear,150,2014-01-20 10:35:00
4:55 AM,36.5,28.9,74,30.03,10.0,SSE,3.5,-,N/A,,Clear,160,2014-01-20 10:55:00
5:15 AM,38.1,29.1,70,30.02,10.0,SSE,4.6,-,N/A,,Clear,160,2014-01-20 11:15:00
5:35 AM,36.5,28.9,74,30.02,10.0,SSE,3.5,-,N/A,,Clear,150,2014-01-20 11:35:00
5:55 AM,36.7,28.9,74,30.02,10.0,SE,3.5,-,N/A,,Clear,140,2014-01-20 11:55:00
6:15 AM,33.4,28.2,81,30.02,10.0,SSE,3.5,-,N/A,,Clear,150,2014-01-20 12:15:00
6:35 AM,35.8,29.3,77,30.02,10.0,Calm,Calm,-,N/A,,Clear,0,2014-01-20 12:35:00
6:55 AM,35.4,29.3,78,30.02,10.0,Calm,Calm,-,N/A,,Clear,0,2014-01-20 12:55:00
7:15 AM,35.8,29.3,77,30.02,10.0,Calm,Calm,-,N/A,,Clear,0,2014-01-20 13:15:00
7:35 AM,35.1,29.1,79,30.02,10.0,SE,3.5,-,N/A,,Clear,140,2014-01-20 13:35:00
7:55 AM,36.7,30.7,79,30.02,10.0,SSE,3.5,-,N/A,,Clear,150,2014-01-20 13:55:00
8:15 AM,42.8,31.8,65,30.03,10.0,South,4.6,-,N/A,,Clear,170,2014-01-20 14:15:00
8:35 AM,45.0,32.2,61,30.03,10.0,South,3.5,-,N/A,,Clear,170,2014-01-20 14:35:00
8:55 AM,47.1,32.5,57,30.04,10.0,South,4.6,-,N/A,,Clear,170,2014-01-20 14:55:00
9:15 AM,49.5,33.1,53,30.04,10.0,South,4.6,-,N/A,,Clear,170,2014-01-20 15:15:00
9:35 AM,52.5,34.7,51,30.04,10.0,SSW,8.1,-,N/A,,Clear,210,2014-01-20 15:35:00
9:55 AM,55.0,36.1,49,30.04,10.0,SSW,6.9,-,N/A,,Clear,210,2014-01-20 15:55:00
10:15 AM,58.1,37.0,45,30.04,10.0,SW,9.2,-,N/A,,Clear,220,2014-01-20 16:15:00
10:35 AM,60.6,38.3,44,30.04,10.0,SSW,5.8,-,N/A,,Clear,200,2014-01-20 16:35:00
10:55 AM,62.4,39.2,42,30.03,10.0,SSW,6.9,-,N/A,,Clear,210,2014-01-20 16:55:00
11:15 AM,64.6,39.9,40,30.02,10.0,SSW,6.9,-,N/A,,Clear,200,2014-01-20 17:15:00
11:35 AM,65.8,40.5,39,30.00,10.0,SSW,9.2,-,N/A,,Clear,200,2014-01-20 17:35:00
11:55 AM,67.3,41.2,39,29.99,10.0,SSW,11.5,-,N/A,,Clear,210,2014-01-20 17:55:00
12:15 PM,68.9,41.9,37,29.98,10.0,SW,10.4,16.1,N/A,,Clear,220,2014-01-20 18:15:00
12:35 PM,69.1,42.4,38,29.96,10.0,SSW,11.5,16.1,N/A,,Clear,210,2014-01-20 18:35:00
12:55 PM,70.7,42.6,36,29.94,10.0,SSW,9.2,-,N/A,,Clear,210,2014-01-20 18:55:00
1:15 PM,71.1,42.3,35,29.93,10.0,South,11.5,17.3,N/A,,Clear,190,2014-01-20 19:15:00
1:35 PM,72.0,42.8,35,29.91,10.0,SW,11.5,17.3,N/A,,Clear,220,2014-01-20 19:35:00
1:55 PM,72.7,43.0,34,29.90,10.0,South,5.8,17.3,N/A,,Clear,170,2014-01-20 19:55:00
2:15 PM,73.2,43.2,34,29.89,10.0,South,6.9,-,N/A,,Clear,170,2014-01-20 20:15:00
2:35 PM,72.7,43.0,34,29.88,10.0,SSE,8.1,-,N/A,,Clear,160,2014-01-20 20:35:00
2:55 PM,72.7,42.8,34,29.88,10.0,South,5.8,-,N/A,,Clear,180,2014-01-20 20:55:00
3:15 PM,73.2,42.8,33,29.88,10.0,South,8.1,-,N/A,,Clear,190,2014-01-20 21:15:00
3:35 PM,72.5,43.2,35,29.88,10.0,South,8.1,16.1,N/A,,Clear,170,2014-01-20 21:35:00
3:55 PM,72.5,44.1,36,29.88,10.0,South,4.6,-,N/A,,Clear,190,2014-01-20 21:55:00
4:15 PM,72.1,44.6,37,29.88,10.0,SSW,9.2,-,N/A,,Clear,210,2014-01-20 22:15:00
4:35 PM,71.2,45.1,39,29.88,10.0,SSW,10.4,-,N/A,,Clear,200,2014-01-20 22:35:00
4:55 PM,70.2,46.0,42,29.89,10.0,SSW,8.1,-,N/A,,Clear,200,2014-01-20 22:55:00
5:15 PM,68.5,46.6,45,29.89,10.0,SSW,8.1,-,N/A,,Clear,210,2014-01-20 23:15:00
5:35 PM,66.4,47.1,50,29.90,10.0,SSW,5.8,-,N/A,,Clear,200,2014-01-20 23:35:00
5:55 PM,65.3,47.3,52,29.90,10.0,South,3.5,-,N/A,,Clear,170,2014-01-20 23:55:00
6:15 PM,64.2,47.3,54,29.91,10.0,Calm,Calm,-,N/A,,Clear,0,2014-01-21 00:15:00
6:35 PM,62.6,47.5,58,29.92,10.0,Calm,Calm,-,N/A,,Clear,0,2014-01-21 00:35:00
6:55 PM,62.4,47.8,59,29.93,10.0,Calm,Calm,-,N/A,,Clear,0,2014-01-21 00:55:00
7:15 PM,60.1,48.0,64,29.94,10.0,Calm,Calm,-,N/A,,Clear,0,2014-01-21 01:15:00
7:35 PM,56.3,47.3,72,29.95,10.0,Calm,Calm,-,N/A,,Clear,0,2014-01-21 01:35:00
7:55 PM,55.0,46.8,74,29.96,10.0,Calm,Calm,-,N/A,,Scattered Clouds,0,2014-01-21 01:55:00
8:15 PM,55.0,46.9,74,29.96,10.0,Calm,Calm,-,N/A,,Overcast,0,2014-01-21 02:15:00
8:35 PM,54.1,46.8,76,29.96,10.0,Calm,Calm,-,N/A,,Overcast,0,2014-01-21 02:35:00
8:55 PM,56.7,47.3,71,29.97,10.0,West,4.6,-,N/A,,Mostly Cloudy,270,2014-01-21 02:55:00
9:15 PM,60.6,48.2,64,29.98,10.0,NW,8.1,-,N/A,,Scattered Clouds,310,2014-01-21 03:15:00
9:35 PM,58.8,46.9,65,29.99,10.0,NNW,4.6,-,N/A,,Scattered Clouds,330,2014-01-21 03:35:00
9:55 PM,58.1,46.4,65,29.99,10.0,NW,4.6,-,N/A,,Mostly Cloudy,320,2014-01-21 03:55:00
10:15 PM,57.6,45.5,64,30.00,10.0,NNW,5.8,-,N/A,,Scattered Clouds,330,2014-01-21 04:15:00
10:35 PM,58.3,43.5,58,30.01,10.0,NNW,8.1,-,N/A,,Clear,330,2014-01-21 04:35:00
10:55 PM,57.6,41.9,56,30.01,10.0,NNW,6.9,-,N/A,,Clear,330,2014-01-21 04:55:00
11:15 PM,57.2,40.6,54,30.02,10.0,NNW,5.8,-,N/A,,Clear,330,2014-01-21 05:15:00
11:35 PM,56.3,40.1,55,30.03,10.0,NW,6.9,-,N/A,,Clear,320,2014-01-21 05:35:00
11:55 PM,55.8,38.8,53,30.04,10.0,NNW,8.1,-,N/A,,Clear,330,2014-01-21 05:55:00